Weather History for Killeen/Ft Hood, TX

Change the Weather History Date:

Tuesday, March 4, 2014

  Actual Average Record
Temperature  
Mean Temperature 42 °F -  
Max Temperature 54 °F 65 °F 89 °F (2013)
Min Temperature 30 °F 46 °F 30 °F (2014)
Degree Days  
Heating Degree Days 23    
Moisture  
Dew Point 27 °F    
Average Humidity 66    
Maximum Humidity 82    
Minimum Humidity 41    
Precipitation  
Precipitation 0.06 in - - ()
Sea Level Pressure  
Sea Level Pressure 30.23 in    
Wind  
Wind Speed 5 mph (NE)    
Max Wind Speed 10 mph    
Max Gust Speed -    
Visibility 10 miles    
Events Rain    
Averages and records for this station are not official NWS values.
T = Trace of Precipitation, MM = Missing Value Source: NWS Daily Summary

Daily Weather History Graph

Daily Weather History Graph

Search for Another Location

Airport:

Trip Planner

Search our weather history database for the weather conditions in past years. The results will help you decide how hot, cold, wet, or windy it might be!

Date:

Astronomy

Mar. 04, 2014 Rise Set
Actual Time 6:54 AM CST 6:31 PM CST
Civil Twilight 6:29 AM CST 6:55 PM CST
Nautical Twilight 6:01 AM CST 7:23 PM CST
Astronomical Twilight 5:33 AM CST 7:51 PM CST
Moon 8:57 AM CST (3/4) 10:21 PM CST (3/4)
Length of Visible Light 12h 25m
Length of Day
11h 37m
Waxing Crescent, 15% of the Moon is Illuminated
Mar 4
Waxing Crescent
Mar 8
First Quarter
Mar 16
Full
Mar 23
Last Quarter
Mar 30
New

Hourly Weather History & Observations

Time (CST) Temp. Windchill Dew Point Humidity Pressure Visibility Wind Dir Wind Speed Gust Speed Precip Events Conditions
12:56 AM 30.9 °F 24.3 °F 21.9 °F 69% 30.34 in 10.0 mi NNE 6.9 mph - N/A   Mostly Cloudy
1:56 AM 30.0 °F 24.1 °F 21.0 °F 69% 30.30 in 10.0 mi North 5.8 mph - N/A   Partly Cloudy
2:56 AM 30.9 °F - 21.0 °F 67% 30.33 in 10.0 mi Calm Calm - N/A   Overcast
3:56 AM 30.0 °F 24.1 °F 21.0 °F 69% 30.30 in 10.0 mi NNE 5.8 mph - N/A   Overcast
4:34 AM 30.2 °F 26.7 °F 21.2 °F 69% 30.21 in 10.0 mi NE 3.5 mph - 0.01 in Rain Light Freezing Rain
4:56 AM 30.9 °F 27.5 °F 24.1 °F 76% 30.32 in 10.0 mi NNE 3.5 mph - 0.03 in Rain Light Freezing Rain
5:11 AM 30.2 °F 25.4 °F 24.8 °F 80% 30.19 in 10.0 mi North 4.6 mph - 0.02 in Rain Light Freezing Rain
5:56 AM 30.0 °F 23.2 °F 25.0 °F 82% 30.31 in 10.0 mi North 6.9 mph - 0.03 in   Overcast
6:33 AM 30.2 °F 23.4 °F 24.8 °F 80% 30.19 in 10.0 mi NW 6.9 mph - 0.00 in   Overcast
6:56 AM 30.0 °F - 24.1 °F 79% 30.31 in 10.0 mi Calm Calm - 0.00 in   Overcast
7:56 AM 30.0 °F 26.5 °F 24.1 °F 79% 30.33 in 10.0 mi North 3.5 mph - N/A   Clear
8:56 AM 32.0 °F 27.5 °F 25.0 °F 75% 30.35 in 10.0 mi North 4.6 mph - N/A   Partly Cloudy
9:56 AM 35.1 °F 31.0 °F 27.0 °F 72% 30.32 in 10.0 mi Variable 4.6 mph - N/A   Clear
10:56 AM 37.9 °F 34.4 °F 27.0 °F 65% 30.31 in 10.0 mi North 4.6 mph - N/A   Partly Cloudy
11:56 AM 41.0 °F - 27.0 °F 57% 30.29 in 10.0 mi Calm Calm - N/A   Clear
12:56 PM 46.0 °F 44.8 °F 27.0 °F 47% 30.23 in 10.0 mi West 3.5 mph - N/A   Clear
1:56 PM 51.1 °F - 28.9 °F 43% 30.20 in 10.0 mi Variable 3.5 mph - N/A   Clear
2:56 PM 53.1 °F - 30.0 °F 41% 30.16 in 10.0 mi SE 6.9 mph - N/A   Clear
3:56 PM 54.0 °F - 30.9 °F 41% 30.14 in 10.0 mi ESE 5.8 mph - N/A   Clear
4:56 PM 53.1 °F - 30.9 °F 43% 30.13 in 10.0 mi East 5.8 mph - N/A   Clear
5:56 PM 51.1 °F - 32.0 °F 48% 30.12 in 10.0 mi ESE 10.4 mph - N/A   Clear
6:56 PM 46.9 °F - 33.1 °F 59% 30.13 in 10.0 mi ESE 4.6 mph - N/A   Clear
7:56 PM 45.0 °F 42.6 °F 33.1 °F 63% 30.15 in 10.0 mi East 4.6 mph - N/A   Clear
8:56 PM 42.1 °F 38.4 °F 34.0 °F 73% 30.15 in 10.0 mi ESE 5.8 mph - N/A   Clear
9:56 PM 41.0 °F 34.7 °F 34.0 °F 76% 30.12 in 10.0 mi ESE 10.4 mph - N/A   Clear
10:56 PM 39.0 °F 32.8 °F 34.0 °F 82% 30.14 in 10.0 mi SSE 9.2 mph - N/A   Clear
11:56 PM 39.0 °F 34.8 °F 34.0 °F 82% 30.17 in 10.0 mi South 5.8 mph - N/A   Clear